map of MDQ home
Great Circle Mapper logo
MDQ - Airport
Location
City:  Mar del Plata, Buenos Aires, Argentina
ICAO / IATA:SAZM / MDQ

Details
Type:Airport (Aerodrome, Airfield)
Use:Public/Civil, Military
Latitude:3756'03"S (-37.934166)
Longitude:5734'24"W (-57.573332)
Datum:WGS 1984
Elevation:71 ft (22 m)
Runways:1
Longest:7218 × 197 ft (2200 × 60 m), paved

Time
Time Zone:UTC-3
Local Time:

Weather
METAR:SAZM 201600Z 36015KT CAVOK 20/15 Q1015
TAF:SAZM 201100Z 2012/2112 36010KT 0800 FG BKN006 TX22/2018Z TN11/2110Z
BECMG 2013/2014 34015KT 3000 BR BKN010
BECMG 2015/2016 9999 BKN020
BECMG 2104/2106 34010KT 9999 BKN025 BKN100
BECMG 2108/2110 5000 SHRA BKN020 FEW040CB BKN050

Related Locations
Nearby:
Farthest:WEH: 12378 mi / 19920 km
Weihai (Wendeng) [Dashuipo], Shandong, CN

Find:

   beyond  
but within

Other Information
Maps:
NOTAMs:
Links:
Sources:

  
flag of Argentina
flag of Buenos Aires
  

Sectional Chart

Flight Planning
at skyvector.com

Satellite Image

Google Maps Satellite View

 

Copyright © 2004-2014 Karl L. Swartz. All rights reserved.
The Great Circle Mapper name and logo are trademarks of the Great Circle Mapper.
All other trademarks mentioned herein belong to their respective owners.
Please see credits for attibutions and further copyright information.

  Follow gcmap on Facebook Follow gcmap on Twitter

hCard Microformat

Geo Microformat